Wind_Speed
65 59 57 61 61 57 55 55 57 60 66 73 79 84 87 89 92 90 85 84 84 80 76 75 74 72 70 69 70 72 72 68 65 63 61 60 60 58 57 57 54 52 52 52 53 54 53 53 52 51 51 51 50 51 52 51 50 51 53 53 54 54 53 53 53 53 54 55 55 55 54 53 54 55 55 55 55 57 58 58 57 57 59 61 62 63 63
68 66 62 61 63 62 59 56 55 58 63 69 74 79 82 87 92 91 87 87 87 83 80 80 79 75 73 73 74 74 74 73 70 66 64 62 62 60 61 61 59 57 56 54 55 56 56 55 54 53 53 54 53 53 54 54 53 53 55 55 55 56 55 55 55 55 56 57 57 56 56 55 56 57 58 57 57 58 59 61 60 60 60 61 63 64 65
69 68 66 64 64 64 62 57 54 57 60 64 68 73 77 81 87 91 90 89 89 86 84 83 83 81 78 77 77 76 74 75 75 72 68 67 65 63 63 64 63 60 58 58 58 58 57 56 55 54 55 56 56 55 55 55 55 54 56 58 58 58 57 57 57 57 58 59 58 58 57 56 57 59 60 60 60 60 60 61 62 62 62 62 64 65 66
67 66 66 66 65 67 65 58 53 53 57 59 61 65 72 78 83 89 92 91 89 88 88 88 87 86 83 80 79 78 75 75 79 77 73 71 69 66 67 68 66 63 61 60 60 59 58 57 56 55 57 58 58 57 57 57 57 56 57 58 59 58 58 59 58 59 60 60 60 60 58 58 59 61 62 62 63 63 62 62 63 63 63 64 64 65 66
65 65 67 68 71 72 64 53 49 52 57 60 61 62 68 75 80 85 90 91 90 89 92 94 92 88 86 83 82 80 78 78 81 80 76 74 71 69 70 72 70 66 63 63 62 61 60 59 58 57 56 58 59 58 58 59 59 59 59 60 60 59 59 60 60 60 62 62 62 61 60 60 60 62 63 64 65 66 65 64 64 64 64 65 65 65 66
69 70 72 74 76 70 55 48 53 59 60 61 63 63 65 70 75 81 86 89 90 92 95 97 95 91 89 88 85 83 82 82 82 81 79 76 74 72 72 74 73 69 68 67 66 65 63 62 61 59 58 59 61 61 61 61 61 62 62 63 64 64 63 62 61 62 63 64 64 63 62 62 63 63 65 66 67 68 67 67 66 66 65 66 66 66 66
76 76 78 79 73 60 52 57 64 63 60 59 61 63 64 64 68 75 83 87 89 92 94 96 96 95 93 91 88 85 86 86 83 82 82 80 77 75 74 76 75 72 72 72 69 67 66 64 63 62 61 62 63 63 63 64 64 65 65 66 67 67 65 63 63 63 64 65 65 65 65 65 65 66 67 69 70 70 70 70 69 69 68 67 67 66 66
80 79 80 77 66 56 59 66 67 63 59 58 59 61 61 60 64 71 79 84 86 88 91 94 97 98 97 95 92 89 88 88 86 84 83 81 79 78 78 79 78 75 74 75 73 71 70 68 65 64 64 64 65 66 66 65 66 68 68 68 70 69 66 65 64 64 65 67 67 67 67 67 67 68 69 71 72 73 73 72 72 72 70 69 68 67 67
82 81 79 74 66 62 64 67 65 62 60 58 58 59 58 59 62 66 71 77 80 84 87 90 94 98 99 99 96 92 89 88 88 86 84 82 82 82 81 82 83 79 76 76 77 76 73 70 67 67 66 66 67 68 68 67 69 70 70 71 72 71 68 66 66 66 67 68 69 70 70 70 70 71 71 73 75 75 75 75 75 75 74 72 70 69 67
84 82 79 73 66 63 63 61 59 58 58 57 56 55 53 55 60 65 68 72 75 80 86 90 93 98 101 100 97 93 89 87 89 90 87 85 85 85 86 87 87 83 79 78 79 79 76 72 70 70 68 68 70 71 70 69 71 73 72 73 73 72 69 67 67 68 68 69 70 71 72 72 73 73 74 76 77 77 78 78 78 78 77 75 73 70 67
85 82 76 68 62 61 63 61 58 57 55 52 52 51 51 55 62 66 66 65 67 73 80 86 90 94 97 97 95 94 93 90 90 91 92 90 89 87 89 90 87 85 85 83 80 79 79 76 73 72 71 71 71 72 71 72 74 75 74 74 74 73 71 69 69 70 70 70 71 72 73 74 75 76 77 78 79 79 79 79 79 79 78 76 73 71 69
84 81 75 67 63 63 63 62 60 57 52 49 50 50 51 55 60 60 59 60 64 67 72 78 84 88 90 91 91 94 96 95 94 93 94 94 92 90 90 91 88 89 91 85 77 77 81 81 78 75 74 74 73 72 72 73 75 77 76 75 75 75 74 73 73 73 72 72 73 73 74 76 77 78 79 80 80 81 80 80 79 78 77 75 73 72 71
82 80 75 69 65 64 62 61 61 60 56 53 51 49 49 52 53 52 54 58 62 64 68 73 78 83 87 88 90 94 97 97 97 96 95 95 94 92 92 93 94 95 91 82 76 80 85 86 83 79 77 76 75 73 73 74 78 80 78 76 76 77 76 76 75 74 74 74 74 75 76 77 79 80 81 81 81 81 81 80 79 78 77 75 74 74 74
80 79 75 70 67 64 62 62 62 61 58 56 51 48 48 51 54 54 54 55 56 58 64 69 72 77 82 87 90 92 94 97 97 96 95 96 96 94 93 96 97 95 87 80 79 86 91 90 86 83 79 77 76 75 74 75 79 81 79 78 79 78 77 77 76 75 76 76 76 76 77 79 80 81 81 81 81 81 80 80 78 77 77 76 75 74 74
78 79 76 70 66 63 61 62 62 59 57 54 51 50 52 53 55 57 56 54 52 53 57 63 68 71 77 84 88 89 90 94 96 95 95 96 96 95 94 95 95 91 87 86 87 91 93 92 89 85 80 77 77 77 76 77 79 81 81 81 80 79 78 77 77 78 78 78 78 78 79 80 81 81 81 81 80 81 80 78 76 75 75 74 73 72 72
78 79 74 68 65 61 59 61 61 58 56 55 53 54 55 53 54 57 58 56 55 53 54 58 63 67 72 77 82 86 88 90 90 91 94 96 96 96 96 95 93 88 87 89 92 93 92 91 88 85 81 80 81 80 77 77 78 80 81 80 79 79 79 79 79 80 80 79 80 80 80 81 81 81 81 80 80 80 78 75 72 72 72 72 71 71 72
79 77 72 67 64 61 58 59 58 54 53 54 54 54 54 53 53 55 56 57 56 55 54 53 56 63 67 69 73 79 83 84 83 87 92 94 93 95 97 96 93 89 86 87 89 91 91 89 86 83 80 81 82 81 78 77 78 78 78 79 79 80 80 80 80 81 80 80 81 80 80 80 80 80 80 79 77 76 73 70 69 70 71 71 72 72 73
76 73 68 64 61 59 58 59 57 53 51 51 52 53 53 54 54 54 55 56 56 56 55 52 51 55 59 61 66 71 76 78 79 82 86 89 89 92 94 95 95 95 94 93 92 90 88 87 85 82 80 79 80 80 80 80 79 80 80 81 82 82 81 81 81 81 81 81 80 79 79 79 78 78 77 76 74 73 71 69 70 71 72 73 73 74 74
70 63 58 58 58 57 55 55 55 54 50 47 48 51 53 54 54 54 55 56 55 55 56 54 50 49 52 55 60 65 70 74 77 78 80 84 86 87 90 94 97 98 98 99 98 94 90 88 87 87 87 86 85 85 84 82 81 81 82 82 83 83 82 81 81 81 81 81 80 78 78 78 76 74 73 72 70 69 69 69 71 72 74 75 75 75 75
63 54 48 50 54 54 51 51 52 51 49 47 48 50 51 51 51 52 53 53 51 52 55 54 50 49 51 52 55 60 65 70 74 77 78 80 82 83 87 92 95 95 95 97 98 97 96 94 93 92 91 89 87 85 85 84 83 83 83 83 83 83 82 82 82 81 81 80 78 77 77 75 73 71 70 69 68 67 68 69 71 74 76 76 76 75 75
55 46 40 39 44 50 52 52 51 50 51 52 53 52 51 51 51 50 50 52 53 53 56 57 55 52 53 53 53 55 59 64 70 74 77 80 82 82 84 86 88 91 95 97 95 95 96 96 96 94 93 90 87 85 85 85 83 82 83 84 83 83 82 81 81 80 80 79 77 76 75 74 71 69 68 68 68 69 71 71 73 75 77 77 76 76 77
49 44 42 41 41 46 50 52 52 52 51 52 53 51 48 48 49 48 48 51 54 53 54 59 60 56 53 54 54 52 52 57 65 70 73 76 79 80 81 82 84 89 95 96 95 93 92 93 94 94 93 91 88 86 85 84 82 80 81 81 81 81 80 79 79 79 78 77 76 75 75 74 70 67 67 67 69 71 73 74 75 77 78 77 77 78 79
46 43 47 49 47 46 49 52 54 55 54 52 51 50 48 48 49 48 47 49 50 50 50 55 58 56 52 52 54 54 53 57 62 65 66 70 73 76 77 79 82 86 89 90 88 86 84 85 87 89 90 90 89 87 85 83 81 79 78 78 79 79 78 78 78 78 76 75 75 75 74 71 68 67 69 70 72 73 74 75 77 77 78 78 79 80 80
50 46 47 50 50 48 48 49 50 52 52 48 45 44 45 46 46 47 49 50 51 49 47 49 52 53 51 51 53 54 55 58 58 56 57 61 66 71 74 77 80 82 83 83 82 80 79 78 79 80 82 84 85 85 85 84 82 80 79 78 77 77 77 77 77 76 75 74 73 72 70 68 69 71 73 73 74 74 75 75 76 77 77 77 78 78 79
57 53 50 51 52 50 48 46 46 47 48 45 42 41 43 44 44 44 47 51 53 52 49 47 46 46 47 50 52 53 53 54 53 50 50 52 55 60 67 72 76 79 81 83 82 81 79 77 76 76 77 77 79 80 82 83 83 82 80 78 77 77 77 76 74 74 73 71 69 69 69 69 70 72 72 72 73 74 75 75 75 75 74 74 75 77 79
61 58 54 53 53 52 51 49 48 47 45 43 42 42 42 43 44 43 44 47 50 51 50 48 45 43 42 45 48 50 53 54 54 54 53 53 52 54 58 64 69 73 76 79 81 81 81 79 78 76 75 75 75 76 78 79 79 79 77 76 76 76 75 72 70 70 70 69 69 69 70 70 70 70 70 71 73 74 74 74 73 72 72 73 76 78 81
63 63 59 55 54 53 53 51 50 48 44 42 42 42 43 44 45 44 43 43 44 46 47 47 46 47 48 49 48 50 53 56 57 57 57 58 58 58 58 60 64 67 69 71 74 76 77 78 78 77 77 77 78 78 78 78 76 75 75 75 75 75 74 72 71 70 70 69 69 69 68 68 68 68 69 71 72 72 71 70 70 72 73 76 78 81 84
64 66 62 57 55 54 53 51 48 45 42 42 42 43 44 45 46 45 43 41 40 41 43 43 42 43 48 53 54 54 54 54 54 54 56 58 60 61 60 60 62 64 67 68 69 71 73 74 76 77 78 78 79 78 77 76 74 73 73 73 73 73 72 71 70 69 68 67 66 65 65 66 66 66 67 68 68 68 68 69 71 74 76 78 80 83 85
64 66 65 60 56 53 51 50 49 45 41 42 44 44 44 45 46 45 42 39 37 36 34 33 34 35 38 43 47 49 50 50 50 49 49 51 54 58 60 61 61 62 63 63 63 65 67 69 71 72 73 74 73 72 72 72 71 71 71 70 69 68 67 65 64 63 62 61 60 59 60 62 64 65 65 65 66 67 68 70 73 75 76 78 81 84 86
65 67 68 65 60 54 49 47 47 46 43 43 44 45 44 44 44 44 41 37 34 31 27 25 26 28 30 32 35 37 39 41 42 42 42 43 46 50 52 54 55 55 56 55 55 56 57 58 60 61 63 64 66 66 67 67 67 66 66 66 65 64 62 60 59 58 57 56 55 55 57 60 62 63 64 65 67 68 69 70 73 75 77 81 85 88 90
66 67 68 66 63 60 54 49 45 45 47 47 47 47 47 44 41 39 38 34 31 26 22 21 23 24 26 29 29 29 29 29 29 31 33 35 37 41 44 45 47 49 50 51 52 53 53 54 55 55 56 58 59 59 60 60 60 60 61 61 60 59 57 56 55 53 52 52 53 55 59 62 64 66 68 69 71 72 72 74 77 80 82 86 89 93 95
68 67 66 64 63 62 59 54 49 47 49 52 52 51 49 44 37 34 34 33 30 24 20 19 20 23 27 29 29 27 26 26 26 28 30 31 32 34 38 42 45 47 49 51 52 53 54 55 55 55 56 56 56 56 57 57 55 54 54 53 52 51 50 49 50 51 53 55 58 60 63 66 69 71 73 74 75 77 78 80 82 85 88 91 94 95 96
69 68 65 63 62 61 60 58 54 50 50 52 54 54 52 45 37 32 33 34 32 27 23 20 20 21 25 30 33 33 32 32 33 35 36 35 33 33 36 40 42 43 45 46 48 49 50 50 50 49 50 50 50 50 51 50 48 47 47 47 46 46 47 48 52 55 58 61 62 64 67 70 72 75 76 78 79 81 83 85 87 90 92 94 96 96 96
71 69 66 64 62 59 57 58 59 55 53 54 54 53 53 48 39 33 34 38 37 33 30 28 27 25 24 26 32 37 39 39 39 40 40 36 32 30 32 34 35 35 35 36 36 37 38 38 39 39 40 41 41 41 41 41 42 44 46 47 48 49 51 54 57 60 62 64 67 70 72 74 76 78 79 81 83 85 87 89 91 92 94 95 96 96 97
72 71 69 67 65 60 55 56 59 58 57 58 58 56 55 53 47 39 36 41 43 40 36 35 35 34 30 28 29 33 37 39 40 41 40 37 34 33 33 32 32 33 34 34 34 35 35 35 35 36 37 37 38 39 39 41 44 47 50 52 54 56 58 60 62 64 66 68 70 72 74 75 77 79 81 83 85 87 89 91 92 94 95 96 97 99 99
70 70 69 68 67 62 57 55 57 59 59 61 63 62 62 61 57 52 47 46 48 46 42 41 40 39 37 35 34 35 37 38 40 43 44 43 42 41 40 39 38 39 39 38 37 38 39 40 42 42 42 42 44 46 48 50 52 54 56 58 60 61 63 64 66 68 70 72 73 75 77 79 80 82 83 86 88 90 92 93 94 95 96 97 99 100 98
68 68 68 66 65 63 60 57 58 61 62 62 63 64 65 63 60 57 54 52 53 51 48 47 46 45 44 43 41 41 40 40 41 43 45 45 45 44 43 43 43 43 43 43 42 41 42 44 47 48 48 49 52 55 57 59 60 60 62 64 66 67 68 69 70 72 74 76 78 80 82 83 85 87 88 90 91 93 94 95 95 96 98 99 99 96 92
67 67 67 66 65 64 63 62 62 63 64 65 65 66 64 60 56 55 55 55 57 57 54 53 52 51 50 49 48 47 46 45 44 44 45 46 45 46 47 48 48 48 48 49 49 49 49 50 52 54 55 57 58 61 63 66 67 67 68 69 70 71 72 73 75 77 79 80 82 84 86 88 89 90 91 92 93 93 94 95 97 100 100 97 92 88 87
67 67 66 66 65 65 64 65 65 65 66 67 68 67 63 57 54 55 55 56 60 62 59 58 57 56 55 55 54 52 51 51 50 50 51 52 51 51 52 54 56 57 57 57 57 58 59 60 60 60 61 62 64 66 68 70 72 74 74 74 74 75 76 77 78 80 81 82 84 86 87 88 89 90 91 92 92 93 95 99 101 100 96 91 87 87 90
67 66 66 65 65 65 65 65 66 66 67 68 68 66 61 55 54 56 56 58 63 65 63 62 63 62 60 60 59 58 57 57 57 57 57 59 59 59 59 59 61 62 63 64 63 63 64 66 68 69 69 69 70 72 73 75 76 78 79 79 80 81 81 82 83 84 84 85 85 86 87 88 90 91 91 92 94 97 100 101 99 94 89 87 88 91 95
66 66 66 65 64 64 65 66 67 67 67 68 67 65 60 56 55 56 57 59 65 69 68 66 67 67 65 64 64 63 63 62 62 62 62 62 63 64 65 65 64 65 66 67 67 67 67 67 69 72 74 75 76 77 78 80 81 81 82 82 83 83 84 85 86 87 88 89 90 91 91 92 93 94 95 97 100 101 100 97 92 89 88 89 93 97 100
64 65 65 65 65 65 66 67 67 68 68 68 67 64 61 58 57 57 58 60 65 70 72 71 70 70 70 68 67 67 66 66 66 67 67 67 67 67 68 68 69 69 70 71 71 71 71 71 72 73 75 77 78 79 80 81 81 81 82 83 84 84 85 85 86 88 90 92 93 94 95 96 98 99 100 100 99 97 94 91 89 89 91 95 98 102 104
62 63 63 64 64 66 67 67 67 67 67 66 64 61 59 58 57 58 60 61 63 69 74 76 74 73 73 73 71 70 69 69 70 70 70 70 70 71 71 71 71 72 73 74 74 74 75 76 77 78 79 80 81 82 82 82 82 82 83 85 86 87 87 88 89 91 92 94 95 96 98 99 100 99 98 96 94 92 90 90 90 92 97 101 103 105 106
62 63 63 64 65 66 66 67 67 66 65 63 60 57 56 56 57 58 60 61 61 65 71 77 79 77 76 76 76 75 73 73 74 74 74 73 73 73 74 74 73 74 75 76 77 78 79 80 81 83 84 85 85 86 87 87 88 88 90 91 91 92 92 93 94 95 96 97 98 98 98 98 97 95 93 92 91 90 90 91 94 99 103 105 106 107 108
62 63 64 64 66 67 68 68 67 66 63 59 56 54 53 55 57 58 60 61 62 63 66 73 79 81 79 78 79 79 78 77 77 78 78 77 77 77 76 76 76 76 77 78 79 80 81 83 85 86 87 88 88 89 90 91 92 93 94 94 94 95 95 96 97 97 98 97 96 95 94 93 92 91 90 90 91 92 94 98 102 105 106 107 107 108 109
63 64 66 66 67 69 69 68 67 64 61 57 54 53 54 55 57 59 59 61 62 63 64 67 74 79 82 82 81 81 81 81 81 81 81 81 80 80 80 79 79 80 81 81 82 82 82 83 85 86 88 89 90 91 92 92 91 91 92 92 93 95 95 96 96 95 94 92 91 90 90 91 92 92 93 95 97 99 101 104 105 106 107 108 109 110 111
65 66 68 70 70 70 70 68 65 62 59 56 55 56 56 58 59 60 60 61 62 64 64 65 68 73 78 82 84 84 84 84 83 83 83 83 83 83 83 84 84 84 85 84 85 85 85 85 86 87 87 88 89 90 90 88 87 88 89 91 92 94 94 93 92 91 91 91 92 93 94 96 97 98 99 100 101 103 104 105 107 108 109 109 110 111 112
65 66 68 70 71 70 67 64 61 59 58 57 57 58 59 61 62 62 62 62 62 63 64 65 66 68 71 76 81 84 86 86 86 86 85 85 86 86 87 87 88 89 89 89 89 89 89 88 88 88 89 89 89 89 88 87 86 88 89 91 92 93 93 93 93 93 94 96 97 98 99 100 100 100 101 102 103 105 106 107 108 109 110 111 112 113 111
63 63 64 66 66 64 61 59 58 58 59 60 61 61 62 63 64 64 64 64 64 64 64 65 66 66 68 71 75 78 81 83 85 87 88 88 89 89 90 90 91 92 92 92 92 92 91 91 90 90 91 92 91 91 90 90 90 90 91 93 95 96 96 96 97 98 99 99 100 100 101 101 102 103 104 105 106 107 108 109 110 111 112 113 113 112 107
62 61 61 62 61 59 57 57 58 59 60 62 64 66 66 66 67 67 66 66 67 67 67 67 67 67 68 70 72 73 75 76 79 81 83 85 87 89 91 92 93 93 94 94 93 93 92 92 92 92 93 93 93 92 93 93 93 94 94 96 97 98 99 99 99 100 100 100 101 101 102 103 105 106 107 108 109 110 111 112 113 114 114 114 112 108 102
64 63 62 62 62 60 58 58 59 61 62 64 67 69 71 71 71 71 69 69 70 70 70 70 71 71 71 71 72 73 74 75 76 77 78 80 81 83 85 88 90 92 93 94 95 95 94 94 94 94 93 93 93 93 94 94 95 95 95 96 97 98 99 99 100 101 102 103 103 104 105 106 108 109 110 111 112 113 114 115 115 115 114 112 108 102 97
68 67 67 67 66 64 62 61 60 62 64 67 69 71 73 75 76 75 74 73 73 73 74 74 75 75 75 75 75 75 76 77 78 79 80 81 82 83 83 84 86 87 89 90 91 92 92 92 92 92 93 93 94 94 94 95 95 96 96 97 98 99 100 101 102 104 105 106 107 108 108 109 111 112 113 114 115 116 117 117 116 114 111 107 102 97 92
Wind_Direction
261 259 259 259 254 248 245 245 247 247 244 239 236 236 236 236 236 236 234 233 232 231 231 232 231 231 232 234 236 239 242 242 240 239 239 241 243 243 243 245 246 246 247 248 250 253 255 257 259 260 262 264 266 268 270 272 273 275 277 278 280 282 283 284 286 287 289 290 291 292 294 296 298 298 299 301 302 303 304 305 305 305 305 307 310 312 313
260 260 259 258 257 252 246 244 245 247 246 243 239 236 236 237 237 236 235 235 233 231 231 233 233 230 230 232 234 235 238 242 242 240 238 239 241 241 242 245 246 246 247 247 247 250 252 254 256 258 261 263 264 266 268 270 271 273 275 277 279 280 281 282 284 286 287 288 289 291 293 295 296 297 298 299 300 302 302 303 304 304 306 308 310 311 312
258 259 260 259 257 254 248 244 244 247 248 247 243 239 237 237 238 237 236 235 234 232 231 233 234 232 230 230 233 234 235 239 242 241 239 239 241 243 244 245 246 246 247 247 247 249 251 253 255 257 259 261 263 265 267 269 271 273 275 277 277 277 279 281 282 284 286 287 289 290 292 293 295 296 297 298 299 300 301 301 303 304 306 308 309 310 311
257 258 260 260 258 255 248 242 243 249 252 251 247 242 240 238 237 237 236 235 235 234 233 233 234 234 233 231 233 234 234 236 240 241 241 241 241 243 245 246 246 246 247 249 250 251 251 252 254 255 257 260 262 264 266 267 269 271 274 275 275 275 277 279 281 283 285 286 287 289 290 292 294 295 296 298 298 299 299 300 302 304 305 307 308 309 311
257 258 259 259 258 255 248 242 244 249 250 249 246 242 241 240 237 236 237 236 235 234 234 233 232 233 234 233 233 234 234 235 238 241 241 241 242 241 243 246 247 248 249 250 250 250 251 251 253 254 256 259 261 263 264 266 268 269 271 272 273 274 277 279 281 282 284 285 286 288 290 291 292 293 295 296 297 298 298 300 301 303 304 306 308 309 311
260 260 259 257 256 255 250 246 247 247 245 245 245 243 241 240 238 237 237 236 235 234 234 234 232 232 233 234 234 234 234 234 236 240 242 242 243 242 242 245 247 248 249 249 249 251 252 253 254 256 257 258 260 262 264 266 267 268 269 270 272 273 276 279 280 281 283 284 286 288 289 291 292 293 294 295 296 297 298 300 301 303 305 306 307 309 310
261 261 260 258 257 257 255 250 247 245 244 244 245 245 243 242 241 240 238 236 235 235 236 236 234 233 233 234 234 234 235 235 235 237 241 242 243 243 244 245 246 247 249 251 251 253 254 255 256 256 257 257 259 261 263 265 266 268 269 270 271 273 275 278 279 280 282 284 286 288 289 291 292 293 294 295 296 297 299 300 302 303 305 306 307 308 309
257 257 258 258 257 255 252 250 247 246 245 244 244 245 245 243 242 242 240 238 237 237 237 237 237 235 233 233 233 233 235 237 237 236 238 241 244 245 245 246 247 247 248 252 254 254 255 255 256 256 257 258 259 261 262 264 266 267 268 270 271 272 275 277 278 280 282 285 287 288 290 291 292 293 294 295 296 298 299 301 302 303 304 305 306 307 308
253 254 254 255 253 250 248 249 249 247 246 245 244 245 246 246 245 244 243 240 238 238 237 237 237 237 235 234 233 233 234 237 240 239 238 239 241 243 244 246 247 247 247 249 253 254 254 255 256 256 257 258 259 261 262 263 265 266 267 269 271 273 275 276 276 279 283 285 287 289 290 292 293 294 295 296 297 298 300 301 303 303 304 305 306 308 309
252 252 252 253 251 249 249 248 247 246 246 246 246 245 246 247 246 244 243 241 239 238 237 237 237 238 237 235 234 234 234 236 239 241 240 238 239 240 242 244 246 247 247 248 250 253 254 254 254 255 256 257 258 260 262 263 264 266 267 269 271 274 276 276 276 280 283 286 287 289 290 292 293 294 295 296 297 299 301 302 303 304 304 306 307 309 309
251 252 252 252 250 249 248 246 246 246 245 245 246 244 242 243 243 243 243 242 241 240 240 239 238 239 239 238 237 236 236 236 237 240 241 241 239 239 241 243 245 247 248 247 248 251 254 255 254 254 255 256 257 259 261 263 264 266 267 269 272 274 275 276 278 281 284 286 287 288 290 291 293 294 295 297 298 299 301 302 303 303 304 306 308 309 309
250 251 251 250 248 247 246 245 245 244 242 242 244 241 239 242 244 245 245 244 243 241 240 239 239 239 239 239 237 237 236 236 236 237 239 241 242 241 242 244 244 245 246 246 248 251 253 254 254 254 255 256 257 259 261 263 265 266 268 270 272 274 276 277 279 283 285 286 287 289 290 292 293 294 295 297 298 300 301 301 302 303 303 305 307 307 308
249 250 250 249 247 245 243 242 242 240 239 240 240 239 238 242 245 245 244 243 242 240 240 239 238 238 238 237 237 236 235 235 235 236 237 240 241 242 243 244 244 244 246 247 249 251 253 253 253 253 254 256 258 259 261 263 265 266 268 270 272 274 276 278 281 283 285 286 287 289 290 291 293 294 295 297 298 299 300 301 301 302 302 304 305 307 308
245 247 247 246 245 243 242 242 241 240 239 238 239 240 241 242 243 243 243 243 242 241 241 239 238 238 238 238 237 237 236 236 235 235 237 238 240 241 243 245 247 248 248 248 248 249 251 253 253 254 254 256 257 259 261 262 264 266 269 270 272 273 276 279 281 283 284 286 287 289 290 291 293 294 295 296 298 299 299 299 300 301 302 304 306 307 308
241 243 244 244 243 242 241 241 241 239 238 238 239 240 239 239 239 239 240 242 245 246 244 241 239 237 237 238 238 238 237 237 236 236 237 238 239 240 242 245 247 249 249 248 246 246 248 251 253 254 255 257 258 259 260 261 264 266 268 270 271 274 276 278 280 282 284 286 287 288 290 291 292 293 294 296 297 297 298 298 299 300 302 304 305 305 305
237 241 243 243 242 240 238 239 240 239 239 239 238 237 235 234 236 237 238 242 246 247 246 244 241 238 237 237 238 238 238 238 237 237 237 239 239 240 242 244 246 248 249 249 248 248 249 251 253 255 255 256 257 258 259 261 262 265 267 269 271 273 275 277 279 281 283 285 286 288 289 290 291 292 293 295 296 296 297 298 298 299 300 301 301 301 302
236 239 240 240 239 236 235 236 238 238 239 238 238 237 235 234 236 238 239 240 242 245 245 244 241 239 236 237 239 240 240 239 238 237 237 238 239 240 241 243 245 246 247 249 250 250 251 253 254 255 255 254 255 256 257 258 260 263 266 269 271 273 275 276 278 280 282 283 285 286 288 289 290 292 293 294 294 295 296 296 295 295 297 298 298 299 300
235 239 241 242 240 237 235 235 235 234 235 236 238 238 238 239 241 242 241 241 241 244 245 245 244 242 239 237 239 240 239 239 238 238 238 237 238 240 240 241 244 246 246 248 250 251 252 252 252 252 252 253 255 256 257 259 261 263 265 268 270 272 274 275 277 279 280 282 283 285 286 287 289 291 293 293 293 294 294 294 293 294 295 297 297 298 299
232 236 240 242 241 238 237 237 236 234 234 236 238 238 238 239 241 241 241 241 243 246 246 244 245 246 243 240 240 240 240 239 238 239 238 236 237 239 239 238 241 244 245 246 248 250 251 252 253 253 253 255 256 258 259 260 261 263 265 267 269 271 273 274 276 278 279 281 282 284 285 286 289 291 292 292 292 292 292 292 292 293 295 295 296 297 298
229 230 235 240 240 238 237 238 239 237 235 233 234 237 237 237 239 242 241 239 243 248 245 240 241 245 244 242 241 240 240 239 238 238 237 237 238 239 238 236 238 242 246 247 248 250 251 252 253 254 255 256 258 259 260 261 262 263 265 266 268 270 271 273 275 277 278 279 281 282 284 286 287 289 290 289 288 288 288 288 289 291 292 292 293 295 297
225 223 226 234 238 236 235 235 237 237 234 233 235 238 238 234 237 243 243 238 239 244 245 242 242 245 244 242 241 240 240 241 241 239 238 239 240 240 240 239 237 240 245 247 248 249 250 251 253 254 255 257 258 259 260 261 263 264 264 265 266 268 270 273 274 276 277 278 280 282 283 284 286 287 288 287 286 285 286 286 287 289 290 291 293 294 295
215 214 218 225 232 232 231 231 232 232 232 232 233 235 234 232 234 240 241 238 237 240 244 244 242 243 245 242 239 238 238 239 242 241 239 240 242 242 242 241 238 238 242 245 247 249 250 251 252 253 255 256 258 259 260 261 262 263 264 264 265 268 270 272 273 274 276 278 280 281 282 284 284 284 285 284 283 283 284 285 286 288 290 291 292 294 295
205 210 219 226 231 230 227 226 228 229 230 231 231 232 234 234 236 237 238 237 236 236 240 243 241 241 242 240 237 236 235 234 237 240 240 240 241 241 242 242 240 240 242 244 247 249 251 252 253 253 255 256 257 258 259 260 261 263 264 264 266 268 269 271 272 274 276 277 279 280 281 282 282 281 281 281 281 282 283 284 285 288 290 292 293 295 296
200 207 217 224 228 229 226 225 225 227 228 229 230 231 233 235 237 236 234 234 235 235 237 241 243 243 243 240 236 235 236 235 235 239 241 241 241 241 240 240 240 241 242 244 247 249 251 252 253 253 254 256 257 258 258 259 261 262 264 265 266 267 269 270 272 274 275 276 278 279 280 280 280 280 280 279 280 282 283 284 286 289 291 294 296 297 298
202 206 216 221 224 226 228 228 229 229 229 229 231 234 236 238 241 241 238 237 239 241 242 243 245 247 249 247 244 242 241 239 236 238 242 245 244 242 241 240 240 241 242 244 246 248 250 252 253 254 256 257 258 259 259 260 261 263 264 265 266 267 269 270 271 273 274 275 277 278 279 279 280 280 280 280 281 282 284 286 289 292 293 295 295 296 296
205 209 216 221 223 226 229 231 232 231 230 230 232 235 237 238 241 245 247 246 245 245 246 243 239 236 239 243 245 244 242 240 238 238 241 244 245 244 242 240 240 241 242 244 246 248 250 252 253 255 257 258 259 259 260 261 262 264 265 266 266 267 268 269 270 272 273 275 276 277 278 278 279 279 280 281 281 283 286 289 291 292 292 292 293 294 294
207 211 216 221 224 226 228 228 228 228 227 227 228 231 235 238 242 247 252 251 246 243 244 243 238 232 229 230 234 237 238 239 239 240 242 245 246 247 245 243 242 242 243 244 246 248 250 252 253 255 257 258 259 260 262 263 265 265 266 266 267 267 268 269 270 272 273 275 276 277 278 279 279 280 280 282 284 286 288 289 289 288 288 289 290 292 293
208 211 215 220 222 222 225 225 224 224 225 228 230 233 237 243 247 249 252 250 245 242 242 243 241 237 233 232 234 238 241 242 242 242 243 245 246 247 246 244 243 243 243 244 246 248 250 252 253 255 256 258 260 261 263 264 264 265 266 266 267 268 270 271 272 273 274 275 276 277 278 279 280 280 281 284 285 286 286 286 285 285 286 288 289 291 293
208 210 213 216 217 217 221 223 221 220 224 229 231 233 239 244 247 249 251 248 242 238 239 241 242 241 238 237 238 240 242 243 242 242 242 243 243 244 244 243 242 243 244 245 248 250 252 253 254 255 257 258 259 261 262 262 263 264 265 266 268 269 270 271 272 273 274 274 276 278 280 280 280 282 283 284 284 283 283 282 282 283 285 287 289 291 293
209 211 213 215 215 215 216 218 217 219 224 229 231 234 239 245 247 246 246 239 230 225 228 234 238 239 237 235 235 236 236 237 239 240 240 240 240 241 242 242 242 243 243 244 245 247 248 250 252 254 256 256 257 258 260 261 262 263 264 265 267 268 269 270 270 271 272 274 276 277 278 278 279 280 281 280 279 280 280 280 281 283 286 288 289 291 292
210 214 216 216 216 216 216 217 219 222 226 229 232 236 240 244 245 242 235 224 214 213 220 228 231 232 230 229 229 229 230 232 237 240 241 240 240 239 238 238 237 238 239 240 240 241 244 247 250 252 254 255 257 259 259 260 262 263 264 265 266 267 268 269 270 271 272 272 272 272 272 273 274 275 275 275 276 277 278 279 282 284 286 287 289 290 292
211 215 217 218 219 220 220 219 221 225 228 230 234 237 239 241 242 236 223 211 204 204 210 218 223 225 225 224 222 221 224 231 239 244 244 242 239 235 233 232 233 235 237 239 239 241 245 249 252 254 255 256 258 257 257 258 260 262 263 264 265 266 268 270 271 272 271 270 270 269 269 270 270 271 272 273 274 276 278 280 282 283 284 286 288 290 293
212 215 218 220 222 224 224 223 221 224 228 231 233 234 236 238 239 231 215 205 202 202 201 207 218 222 222 221 217 214 216 223 229 234 238 240 239 235 232 232 234 237 240 242 243 245 247 249 251 254 255 256 256 255 255 256 258 259 259 259 260 263 266 267 267 267 267 267 267 267 267 267 268 269 271 272 274 276 278 279 281 282 284 286 288 291 294
212 215 218 220 222 224 226 227 226 226 228 231 232 233 235 237 237 230 215 206 206 206 205 209 219 224 223 221 217 214 214 217 222 228 234 237 237 234 232 232 233 235 238 241 243 244 246 248 249 251 252 253 253 253 253 252 253 255 257 258 259 261 263 263 263 264 264 264 265 265 266 267 268 270 272 274 275 277 278 280 281 283 286 288 290 292 295
213 216 218 221 223 225 226 229 230 229 230 232 233 234 236 236 237 237 227 214 211 214 213 212 216 220 219 219 220 217 215 216 220 226 232 234 234 232 232 232 233 234 235 236 237 240 244 246 246 245 247 250 252 253 253 253 254 256 258 260 260 260 261 261 262 262 263 263 264 266 267 269 271 272 274 275 277 278 280 281 283 285 287 289 291 294 297
215 217 219 221 224 225 225 227 230 231 232 233 234 235 237 237 239 243 239 225 216 216 216 214 217 219 219 219 222 221 220 220 221 224 229 232 233 234 235 236 237 239 239 238 238 239 244 249 250 248 248 251 255 257 257 257 257 258 259 259 259 259 260 260 261 261 262 263 265 267 269 271 272 274 275 276 278 280 282 283 285 286 288 291 294 296 298
215 218 220 221 223 225 224 225 228 230 232 234 234 236 239 239 240 244 242 229 218 215 216 217 219 222 222 224 225 225 224 225 225 226 227 229 229 232 235 238 241 242 243 244 243 243 245 250 253 253 252 253 254 254 255 256 256 257 258 259 259 259 260 260 261 262 263 264 266 268 270 271 273 274 276 278 279 281 283 284 285 287 290 293 295 297 298
215 218 220 222 223 225 225 227 229 230 232 234 235 238 241 242 242 242 239 228 217 214 216 218 221 222 224 226 226 226 226 227 229 230 231 231 231 232 235 239 242 243 244 246 246 245 245 247 249 251 252 252 253 253 255 256 257 257 258 258 259 260 261 262 263 264 265 266 268 269 271 272 274 275 277 278 280 282 284 285 288 290 293 294 295 296 299
216 219 221 223 225 226 228 229 231 232 233 235 238 240 243 243 242 242 238 226 216 213 214 217 219 222 224 225 225 225 225 227 228 230 231 233 233 234 235 237 240 242 244 246 247 247 247 246 247 248 249 251 252 254 255 256 258 259 259 260 260 261 262 263 264 265 266 267 268 269 270 272 273 275 277 279 282 284 286 288 290 292 293 294 296 299 302
219 221 223 225 226 228 229 230 232 234 235 238 240 242 244 244 244 242 236 225 215 213 214 215 218 220 223 224 225 225 226 226 227 229 230 231 233 235 237 238 239 240 242 245 248 249 248 247 247 248 249 250 252 253 253 255 256 258 259 260 261 262 263 263 264 265 266 267 269 270 272 273 275 278 280 282 285 286 288 290 291 292 294 296 299 301 303
221 223 225 226 228 229 231 232 233 235 237 239 242 244 246 246 244 241 235 225 217 214 214 216 217 219 222 224 225 227 227 227 228 229 230 231 233 235 237 239 239 240 241 245 247 248 249 249 248 248 248 249 250 252 253 255 256 258 260 261 262 263 263 264 265 266 267 269 271 273 275 277 279 281 283 285 286 287 289 290 291 293 295 298 299 301 302
225 226 227 228 230 231 233 234 235 237 239 241 243 246 248 247 243 237 232 226 221 217 217 217 218 220 222 223 225 228 229 229 230 230 231 232 233 235 236 238 239 240 242 245 247 248 249 249 249 248 248 249 250 251 253 255 257 259 261 263 264 265 267 268 268 269 270 271 273 275 277 280 282 283 285 286 287 288 288 290 291 293 295 297 299 301 303
228 229 230 231 233 234 235 237 238 239 241 243 246 248 248 245 240 234 230 227 224 221 220 220 220 222 223 225 226 228 230 231 232 232 232 232 234 235 236 237 238 240 241 244 246 247 248 248 249 250 251 251 251 252 254 256 259 261 263 265 266 268 269 271 272 272 273 274 276 278 280 282 283 284 285 286 287 287 288 288 290 292 295 297 299 301 302
230 231 231 232 233 235 237 238 240 241 243 246 248 249 245 241 237 233 230 228 227 225 223 222 222 223 225 227 228 230 232 233 234 234 234 234 235 236 237 238 239 240 241 243 245 246 248 249 250 251 253 253 254 256 257 259 260 262 263 265 267 269 270 272 273 274 276 277 279 280 281 282 283 284 285 285 285 286 287 288 290 292 295 297 299 300 302
230 231 232 232 233 235 237 238 240 243 245 247 246 245 241 238 235 233 231 230 229 229 228 226 225 225 226 228 229 230 233 234 236 237 237 237 237 238 239 240 242 242 243 244 245 246 248 249 250 252 253 255 256 258 259 260 261 262 264 265 267 269 271 272 274 276 277 279 280 280 280 281 281 282 283 283 284 286 287 289 291 293 295 297 298 300 301
230 231 232 233 234 236 238 240 242 245 246 243 239 237 237 238 237 235 234 232 231 231 231 230 229 228 229 230 230 232 233 235 237 238 239 239 239 240 241 242 244 245 246 246 247 248 249 250 251 252 253 255 256 258 259 261 263 264 266 268 269 271 273 274 276 277 277 278 278 278 278 279 280 281 282 284 285 287 288 290 291 293 294 296 298 299 301
231 233 235 236 236 238 240 242 244 244 242 237 233 232 234 236 237 237 237 236 235 234 234 234 233 232 232 232 233 234 235 236 238 239 240 240 241 242 243 244 246 247 248 249 250 251 252 252 253 254 255 257 258 259 261 264 266 268 269 270 272 273 274 274 275 275 275 275 276 277 278 279 280 282 283 284 286 287 289 290 291 293 294 296 298 300 302
236 237 239 240 240 241 242 243 242 239 235 232 230 230 232 234 236 237 238 238 238 238 238 238 238 237 236 236 236 237 237 238 239 240 242 243 243 244 245 246 247 248 250 251 252 254 254 255 256 257 258 260 261 263 265 266 268 268 269 270 271 272 272 273 273 273 274 275 276 277 278 279 281 282 284 285 286 288 289 290 292 293 295 296 298 300 302
239 241 243 244 243 243 242 240 238 235 232 229 228 228 231 234 236 237 238 239 240 241 242 243 243 242 241 241 240 239 239 240 241 242 243 244 245 246 247 248 249 249 250 252 253 255 256 258 259 260 261 262 264 265 266 267 268 268 269 270 270 270 271 271 272 273 274 275 276 277 278 280 281 283 284 285 286 287 289 290 292 294 295 297 299 300 301
241 241 243 244 243 242 241 239 237 234 232 230 228 227 229 231 234 236 238 239 240 240 242 243 245 245 245 245 244 243 243 243 243 244 245 245 246 247 248 249 250 251 252 253 255 256 257 259 260 262 263 264 265 265 266 267 267 267 267 268 268 269 269 270 271 272 274 275 276 277 278 280 281 283 284 285 286 288 289 291 293 294 295 297 299 300 300
242 241 241 241 242 242 242 241 238 234 232 231 229 228 228 230 232 234 236 238 240 241 242 242 243 243 244 245 246 246 246 246 246 246 247 248 248 249 249 250 251 252 253 254 255 256 257 258 259 260 261 262 262 263 263 264 264 264 265 265 266 267 269 270 271 272 274 275 276 277 279 280 282 283 284 286 287 288 290 291 293 294 295 297 298 298 298
243 241 240 241 242 243 244 243 240 236 233 232 231 230 230 230 231 233 234 236 238 240 241 243 243 244 243 243 243 244 245 246 247 248 249 250 250 251 251 251 252 252 252 253 253 254 255 255 256 257 258 259 260 260 261 262 262 263 264 265 266 267 269 270 272 273 274 275 276 278 279 281 282 283 285 286 288 289 290 292 293 294 295 296 296 296 296
Height
10774 10779 10782 10780 10780 10786 10791 10793 10795 10796 10796 10798 10802 10808 10818 10821 10819 10830 10846 10846 10846 10858 10864 10863 10866 10870 10872 10875 10877 10877 10878 10883 10888 10891 10894 10896 10896 10899 10902 10903 10906 10909 10912 10914 10915 10914 10916 10917 10918 10919 10919 10920 10921 10920 10920 10921 10923 10923 10920 10920 10919 10919 10920 10920 10919 10919 10918 10916 10914 10914 10913 10914 10913 10911 10909 10909 10907 10905 10902 10901 10902 10901 10897 10892 10888 10885 10883
10765 10767 10771 10773 10773 10775 10780 10785 10789 10790 10789 10791 10796 10803 10810 10811 10813 10825 10834 10833 10838 10851 10854 10853 10857 10861 10864 10866 10867 10870 10872 10874 10879 10884 10888 10890 10891 10894 10896 10896 10899 10902 10905 10908 10909 10909 10910 10911 10913 10914 10914 10914 10915 10915 10915 10915 10917 10917 10915 10914 10915 10914 10913 10914 10914 10913 10912 10910 10909 10909 10909 10909 10908 10905 10903 10903 10903 10901 10898 10895 10894 10894 10892 10888 10884 10880 10878
10756 10760 10762 10764 10765 10767 10770 10777 10782 10783 10784 10787 10791 10798 10803 10804 10807 10815 10819 10821 10830 10841 10845 10846 10848 10851 10855 10857 10857 10861 10866 10868 10869 10874 10880 10882 10885 10889 10890 10890 10892 10896 10899 10901 10902 10904 10905 10906 10908 10909 10908 10908 10908 10909 10909 10909 10910 10911 10910 10908 10908 10908 10908 10907 10908 10907 10906 10904 10903 10903 10904 10904 10902 10899 10897 10897 10896 10895 10894 10891 10888 10887 10886 10884 10880 10876 10873
10748 10753 10754 10754 10756 10756 10758 10768 10778 10781 10781 10783 10786 10790 10792 10793 10797 10802 10804 10810 10822 10832 10835 10834 10836 10840 10845 10850 10851 10854 10861 10862 10860 10865 10872 10874 10878 10883 10884 10882 10885 10889 10892 10894 10896 10898 10900 10900 10902 10903 10902 10902 10902 10902 10903 10903 10903 10905 10904 10901 10900 10902 10902 10902 10902 10901 10899 10898 10898 10898 10899 10899 10897 10894 10892 10890 10889 10888 10887 10886 10884 10882 10880 10878 10876 10872 10869
10740 10744 10745 10745 10741 10739 10752 10770 10778 10775 10772 10771 10774 10778 10780 10781 10787 10790 10794 10804 10815 10818 10815 10817 10824 10831 10836 10841 10845 10847 10852 10853 10851 10854 10862 10866 10870 10875 10876 10875 10878 10883 10886 10888 10889 10891 10893 10894 10895 10896 10897 10897 10896 10896 10896 10896 10897 10898 10897 10895 10894 10896 10897 10896 10896 10895 10893 10892 10892 10892 10893 10893 10892 10890 10887 10885 10883 10881 10880 10880 10879 10877 10875 10873 10870 10868 10864
10730 10733 10733 10732 10726 10734 10757 10770 10763 10757 10758 10759 10763 10769 10771 10774 10779 10783 10788 10795 10801 10799 10800 10807 10817 10824 10827 10830 10836 10840 10841 10843 10845 10847 10852 10857 10862 10867 10869 10869 10871 10876 10877 10879 10881 10883 10885 10888 10889 10891 10892 10891 10890 10890 10890 10890 10890 10891 10890 10889 10888 10889 10890 10891 10891 10889 10887 10886 10886 10886 10886 10886 10885 10884 10882 10880 10877 10875 10874 10873 10872 10871 10870 10867 10865 10862 10860
10719 10721 10717 10716 10723 10743 10756 10751 10741 10743 10750 10754 10757 10761 10765 10770 10774 10776 10778 10782 10786 10788 10793 10801 10808 10814 10818 10821 10827 10832 10832 10833 10838 10842 10844 10849 10854 10859 10862 10862 10864 10869 10869 10869 10874 10878 10879 10882 10884 10886 10886 10885 10883 10884 10884 10883 10883 10883 10883 10882 10880 10882 10884 10885 10884 10883 10881 10880 10879 10880 10879 10879 10878 10877 10875 10872 10870 10868 10867 10865 10864 10863 10863 10861 10859 10857 10855
10705 10707 10704 10710 10726 10741 10738 10729 10729 10738 10745 10748 10751 10754 10760 10766 10766 10765 10767 10773 10779 10782 10787 10793 10795 10800 10806 10810 10815 10822 10823 10824 10831 10836 10839 10844 10847 10851 10853 10852 10855 10861 10863 10861 10864 10869 10872 10875 10879 10880 10880 10879 10877 10877 10877 10877 10876 10875 10875 10874 10873 10874 10878 10878 10877 10876 10875 10874 10873 10873 10872 10872 10871 10870 10868 10865 10862 10861 10859 10858 10856 10855 10855 10854 10852 10850 10848
10693 10695 10697 10706 10719 10724 10722 10722 10726 10732 10737 10740 10743 10749 10756 10759 10757 10757 10760 10764 10769 10772 10777 10782 10783 10786 10791 10797 10805 10814 10819 10822 10824 10828 10833 10837 10838 10839 10843 10842 10842 10849 10856 10856 10855 10858 10863 10868 10872 10873 10874 10874 10872 10870 10870 10871 10869 10867 10868 10868 10866 10867 10871 10872 10870 10870 10869 10868 10867 10865 10864 10864 10863 10862 10861 10858 10855 10853 10852 10850 10848 10846 10846 10845 10844 10842 10840
10681 10685 10689 10697 10707 10714 10717 10719 10721 10724 10729 10733 10737 10744 10751 10750 10747 10746 10748 10751 10757 10763 10766 10770 10771 10772 10777 10788 10801 10811 10818 10819 10816 10816 10822 10826 10826 10829 10831 10830 10830 10837 10845 10849 10848 10849 10854 10860 10864 10865 10867 10868 10865 10863 10864 10865 10862 10860 10861 10862 10860 10861 10864 10865 10864 10864 10864 10863 10861 10859 10858 10856 10855 10854 10852 10850 10848 10846 10844 10843 10840 10837 10836 10835 10834 10833 10831
10671 10676 10683 10691 10701 10706 10708 10711 10714 10717 10722 10726 10730 10735 10740 10738 10733 10734 10740 10747 10752 10756 10758 10762 10765 10767 10772 10786 10800 10807 10811 10812 10808 10805 10807 10811 10815 10819 10819 10820 10825 10828 10831 10837 10843 10844 10845 10849 10854 10857 10859 10860 10859 10859 10859 10858 10854 10853 10855 10856 10855 10854 10856 10858 10858 10858 10858 10858 10856 10854 10852 10850 10848 10847 10844 10843 10841 10839 10837 10835 10833 10829 10827 10826 10824 10823 10821
10663 10668 10676 10685 10692 10695 10697 10702 10707 10710 10715 10719 10721 10725 10729 10728 10727 10731 10738 10740 10741 10744 10747 10752 10756 10759 10767 10779 10790 10793 10795 10798 10797 10795 10795 10798 10805 10810 10811 10814 10817 10815 10815 10828 10841 10842 10837 10838 10843 10848 10850 10852 10853 10855 10854 10852 10848 10846 10847 10849 10849 10848 10849 10850 10851 10851 10852 10852 10850 10848 10847 10844 10842 10840 10837 10836 10834 10832 10830 10827 10824 10822 10820 10819 10817 10815 10813
10654 10660 10669 10677 10681 10685 10690 10695 10698 10701 10708 10711 10712 10717 10723 10724 10723 10726 10727 10727 10730 10735 10738 10741 10746 10751 10758 10767 10772 10773 10777 10781 10784 10787 10788 10790 10795 10800 10803 10802 10800 10800 10811 10829 10838 10832 10825 10825 10830 10838 10842 10845 10847 10849 10850 10847 10842 10838 10841 10844 10843 10843 10843 10843 10844 10845 10845 10844 10843 10842 10841 10839 10836 10833 10831 10829 10828 10825 10822 10819 10816 10814 10812 10812 10811 10808 10805
10647 10652 10659 10665 10669 10676 10684 10687 10688 10693 10699 10703 10708 10714 10717 10717 10716 10716 10716 10718 10723 10726 10728 10732 10738 10744 10751 10755 10757 10760 10765 10768 10773 10779 10782 10782 10785 10790 10793 10790 10788 10796 10813 10827 10826 10817 10812 10813 10819 10827 10833 10838 10841 10842 10843 10841 10836 10833 10836 10837 10836 10837 10837 10838 10838 10838 10837 10837 10837 10836 10835 10833 10830 10827 10824 10823 10821 10818 10815 10812 10809 10806 10804 10803 10802 10799 10797
10638 10641 10647 10655 10662 10670 10677 10678 10680 10686 10693 10698 10704 10706 10706 10706 10707 10708 10709 10712 10715 10719 10723 10726 10731 10737 10742 10743 10746 10751 10754 10755 10763 10774 10777 10775 10777 10783 10784 10782 10784 10794 10805 10810 10808 10804 10802 10805 10811 10818 10827 10833 10833 10833 10835 10835 10832 10830 10829 10829 10830 10832 10832 10832 10832 10831 10830 10830 10830 10829 10828 10826 10824 10821 10818 10816 10814 10810 10807 10804 10801 10799 10797 10795 10793 10791 10789
10628 10632 10640 10648 10655 10662 10668 10669 10672 10680 10687 10691 10694 10694 10695 10699 10701 10702 10704 10706 10710 10714 10717 10719 10724 10729 10732 10735 10738 10742 10744 10748 10760 10770 10769 10767 10771 10775 10775 10773 10778 10787 10793 10792 10792 10794 10797 10800 10805 10812 10821 10825 10823 10824 10828 10829 10827 10825 10823 10823 10825 10826 10825 10826 10825 10824 10823 10823 10823 10822 10821 10819 10817 10814 10812 10811 10807 10802 10799 10797 10794 10792 10791 10789 10786 10784 10782
10621 10626 10634 10641 10647 10655 10660 10663 10667 10674 10680 10682 10684 10686 10690 10695 10696 10697 10699 10703 10707 10709 10711 10714 10717 10719 10725 10730 10733 10733 10736 10743 10753 10756 10754 10757 10764 10766 10766 10769 10774 10781 10784 10780 10780 10785 10790 10794 10798 10804 10810 10813 10813 10816 10820 10821 10820 10819 10818 10818 10819 10818 10818 10819 10818 10817 10817 10817 10816 10815 10814 10811 10810 10808 10806 10804 10800 10795 10792 10791 10788 10786 10785 10783 10780 10779 10777
10614 10622 10631 10637 10643 10649 10653 10656 10662 10668 10672 10675 10677 10681 10685 10687 10689 10692 10695 10698 10701 10702 10704 10707 10710 10712 10719 10725 10724 10724 10728 10734 10740 10742 10744 10750 10754 10755 10762 10769 10771 10772 10772 10769 10770 10775 10781 10785 10789 10793 10797 10801 10804 10807 10810 10812 10814 10814 10813 10813 10811 10810 10811 10812 10811 10811 10811 10810 10809 10809 10807 10805 10803 10802 10798 10795 10791 10788 10786 10784 10782 10780 10779 10776 10774 10773 10771
10610 10621 10629 10632 10637 10643 10648 10653 10657 10663 10668 10671 10670 10672 10676 10680 10683 10686 10688 10691 10694 10695 10697 10701 10703 10706 10712 10716 10716 10717 10720 10724 10729 10732 10735 10738 10742 10746 10754 10758 10757 10757 10759 10760 10763 10767 10772 10776 10780 10783 10786 10791 10795 10798 10801 10804 10806 10807 10807 10806 10804 10804 10805 10804 10804 10804 10803 10802 10803 10802 10800 10798 10797 10795 10791 10786 10782 10780 10778 10776 10774 10773 10771 10769 10768 10766 10764
10608 10621 10626 10627 10631 10638 10644 10647 10651 10657 10664 10665 10663 10663 10669 10675 10677 10678 10681 10686 10688 10688 10690 10694 10695 10697 10702 10707 10709 10710 10712 10715 10718 10722 10725 10729 10732 10736 10740 10742 10747 10754 10757 10756 10759 10763 10766 10768 10771 10773 10777 10781 10786 10790 10792 10794 10797 10798 10799 10798 10798 10797 10798 10797 10797 10796 10795 10795 10795 10794 10792 10790 10789 10787 10783 10779 10776 10772 10770 10769 10768 10765 10764 10762 10761 10759 10757
10607 10617 10622 10623 10625 10630 10635 10640 10644 10650 10654 10656 10656 10658 10664 10669 10671 10671 10675 10680 10681 10681 10683 10686 10688 10690 10695 10699 10702 10704 10707 10710 10711 10714 10718 10721 10723 10726 10731 10737 10749 10759 10757 10751 10752 10756 10759 10761 10763 10764 10767 10772 10777 10781 10783 10785 10788 10789 10790 10790 10791 10791 10791 10791 10790 10788 10787 10787 10787 10786 10784 10782 10782 10780 10776 10772 10769 10765 10763 10762 10761 10758 10756 10755 10754 10752 10749
10603 10611 10615 10617 10619 10623 10628 10633 10637 10641 10644 10646 10650 10652 10656 10661 10664 10666 10668 10672 10674 10675 10677 10678 10681 10685 10688 10691 10694 10698 10701 10703 10703 10704 10709 10713 10715 10719 10723 10730 10741 10751 10749 10744 10744 10748 10751 10753 10755 10757 10760 10764 10768 10771 10773 10776 10778 10779 10781 10782 10783 10784 10784 10784 10781 10779 10779 10779 10779 10777 10776 10775 10774 10773 10769 10765 10761 10757 10755 10755 10754 10751 10749 10747 10746 10743 10741
10599 10606 10610 10612 10614 10617 10621 10625 10629 10631 10634 10639 10643 10647 10651 10655 10658 10660 10662 10664 10666 10669 10671 10672 10675 10679 10682 10685 10688 10690 10691 10691 10691 10694 10699 10703 10705 10708 10712 10717 10724 10733 10736 10736 10737 10740 10742 10745 10747 10750 10753 10755 10758 10761 10764 10766 10768 10770 10772 10774 10775 10776 10776 10774 10772 10771 10772 10772 10770 10768 10768 10767 10766 10764 10761 10757 10752 10750 10749 10747 10746 10744 10741 10739 10736 10734 10731
10594 10600 10604 10606 10609 10612 10615 10619 10622 10625 10629 10634 10639 10643 10647 10649 10652 10654 10656 10658 10660 10664 10667 10669 10671 10674 10678 10681 10683 10683 10682 10681 10683 10686 10691 10694 10696 10699 10703 10707 10712 10718 10724 10727 10730 10732 10734 10737 10740 10743 10745 10747 10749 10751 10754 10757 10759 10761 10764 10766 10768 10768 10767 10764 10763 10762 10763 10763 10762 10760 10759 10759 10757 10754 10751 10748 10744 10742 10741 10740 10738 10736 10733 10730 10727 10724 10721
10587 10593 10596 10599 10602 10606 10611 10615 10618 10622 10626 10631 10635 10639 10642 10644 10646 10649 10652 10654 10656 10659 10663 10667 10671 10674 10676 10678 10679 10678 10676 10675 10678 10682 10684 10687 10690 10693 10696 10700 10705 10709 10714 10718 10721 10724 10726 10729 10732 10734 10737 10739 10740 10743 10745 10748 10750 10752 10755 10758 10758 10758 10756 10755 10754 10753 10753 10754 10754 10752 10751 10750 10748 10744 10741 10739 10737 10735 10733 10732 10730 10727 10724 10721 10719 10716 10713
10581 10586 10589 10592 10596 10600 10605 10610 10614 10618 10622 10626 10630 10633 10636 10639 10641 10644 10647 10649 10652 10654 10657 10662 10667 10670 10671 10671 10674 10675 10673 10672 10674 10676 10678 10680 10683 10686 10690 10694 10698 10701 10705 10709 10713 10716 10718 10721 10724 10727 10729 10730 10732 10733 10735 10738 10741 10744 10747 10748 10747 10746 10747 10747 10746 10745 10745 10745 10745 10744 10742 10740 10738 10735 10732 10730 10728 10727 10725 10724 10722 10719 10716 10714 10712 10709 10705
10575 10578 10582 10586 10590 10594 10599 10604 10608 10612 10617 10621 10625 10628 10631 10634 10636 10639 10642 10644 10646 10648 10650 10653 10658 10661 10662 10663 10665 10667 10667 10667 10669 10671 10673 10676 10678 10680 10684 10687 10691 10694 10698 10702 10705 10708 10711 10714 10716 10718 10720 10721 10722 10724 10727 10730 10733 10735 10736 10736 10736 10736 10738 10739 10738 10737 10736 10736 10735 10734 10732 10729 10727 10726 10723 10721 10720 10719 10718 10716 10714 10711 10709 10707 10705 10701 10697
10568 10572 10577 10581 10584 10589 10594 10600 10604 10608 10612 10616 10620 10623 10626 10629 10631 10634 10637 10639 10641 10642 10643 10646 10649 10652 10654 10656 10657 10658 10660 10661 10663 10666 10668 10670 10672 10675 10678 10680 10684 10688 10691 10694 10698 10701 10703 10705 10707 10709 10711 10713 10715 10717 10720 10722 10724 10725 10725 10725 10726 10727 10728 10730 10729 10728 10727 10727 10726 10724 10722 10719 10717 10716 10714 10713 10712 10712 10711 10709 10706 10703 10701 10699 10696 10692 10689
10561 10564 10569 10573 10578 10584 10590 10595 10599 10603 10608 10611 10615 10619 10621 10624 10627 10629 10632 10634 10635 10636 10638 10640 10642 10644 10647 10649 10650 10652 10653 10655 10656 10659 10661 10663 10666 10669 10671 10674 10678 10681 10684 10688 10692 10694 10695 10698 10700 10702 10704 10706 10708 10710 10711 10713 10715 10716 10716 10716 10717 10718 10719 10720 10720 10719 10718 10717 10716 10715 10713 10710 10708 10707 10707 10706 10704 10704 10703 10701 10697 10694 10693 10691 10687 10683 10680
10556 10559 10563 10568 10575 10581 10587 10590 10594 10599 10603 10607 10610 10614 10616 10619 10622 10624 10626 10628 10629 10631 10633 10635 10637 10639 10640 10642 10644 10646 10648 10649 10651 10652 10655 10657 10660 10663 10666 10670 10673 10676 10680 10683 10686 10688 10690 10692 10694 10695 10697 10698 10700 10702 10703 10704 10706 10707 10707 10708 10709 10709 10710 10710 10710 10710 10709 10708 10708 10707 10705 10703 10702 10701 10700 10698 10697 10696 10696 10693 10688 10685 10684 10681 10676 10673 10670
10552 10555 10560 10567 10573 10578 10582 10586 10591 10595 10599 10602 10605 10608 10611 10614 10616 10618 10620 10622 10624 10626 10629 10631 10632 10634 10636 10638 10640 10641 10643 10645 10647 10648 10650 10653 10656 10659 10662 10665 10668 10672 10675 10678 10680 10682 10684 10686 10687 10689 10690 10691 10693 10694 10696 10697 10698 10698 10699 10700 10701 10701 10701 10701 10701 10701 10701 10700 10700 10699 10698 10697 10696 10694 10692 10691 10690 10688 10687 10685 10680 10677 10675 10672 10667 10664 10662
10548 10552 10558 10564 10569 10573 10578 10583 10587 10591 10594 10597 10600 10602 10606 10610 10613 10614 10616 10618 10620 10623 10626 10628 10629 10631 10632 10634 10637 10639 10641 10643 10645 10646 10647 10650 10653 10656 10659 10661 10664 10667 10669 10671 10674 10677 10678 10680 10681 10683 10683 10684 10686 10688 10689 10690 10690 10691 10691 10692 10692 10692 10692 10693 10693 10693 10693 10692 10692 10692 10691 10690 10688 10686 10684 10684 10682 10680 10678 10676 10672 10669 10667 10664 10661 10658 10655
10546 10550 10555 10560 10565 10569 10574 10579 10583 10587 10590 10593 10595 10598 10601 10606 10609 10610 10612 10614 10617 10619 10622 10624 10626 10628 10629 10631 10634 10636 10639 10641 10643 10644 10646 10648 10650 10653 10655 10657 10659 10662 10664 10666 10669 10671 10672 10674 10675 10676 10677 10677 10678 10680 10681 10683 10683 10684 10684 10684 10684 10684 10685 10685 10685 10685 10685 10685 10684 10683 10682 10681 10679 10677 10676 10674 10673 10671 10669 10667 10664 10662 10660 10657 10653 10651 10649
10543 10547 10552 10556 10560 10565 10570 10575 10579 10582 10586 10589 10592 10594 10597 10601 10604 10607 10609 10611 10613 10615 10617 10619 10622 10625 10627 10629 10630 10632 10634 10637 10639 10641 10643 10645 10647 10649 10650 10652 10655 10657 10659 10661 10663 10665 10666 10668 10669 10670 10670 10671 10671 10672 10674 10675 10676 10677 10677 10677 10677 10677 10677 10677 10677 10677 10677 10676 10675 10673 10672 10671 10669 10667 10665 10664 10663 10661 10659 10658 10656 10654 10652 10649 10644 10641 10640
10539 10544 10548 10552 10557 10562 10566 10570 10574 10577 10580 10584 10587 10590 10593 10596 10599 10603 10606 10609 10610 10612 10613 10615 10617 10621 10623 10625 10627 10629 10631 10633 10635 10638 10640 10642 10643 10644 10646 10648 10650 10652 10653 10655 10657 10659 10661 10662 10663 10663 10664 10664 10665 10666 10668 10669 10670 10670 10670 10669 10670 10669 10669 10670 10669 10669 10668 10667 10665 10663 10662 10660 10659 10657 10656 10654 10653 10651 10649 10648 10646 10644 10642 10639 10635 10630 10628
10536 10541 10545 10549 10553 10558 10562 10565 10568 10572 10574 10577 10580 10584 10587 10590 10593 10597 10601 10605 10606 10608 10610 10612 10614 10616 10619 10621 10622 10624 10626 10628 10631 10633 10635 10636 10638 10639 10641 10643 10645 10646 10647 10649 10651 10653 10655 10655 10655 10656 10658 10659 10660 10661 10662 10662 10662 10663 10662 10662 10662 10662 10662 10662 10662 10660 10659 10658 10655 10653 10652 10650 10649 10648 10647 10645 10644 10642 10641 10639 10636 10634 10633 10630 10626 10620 10616
10532 10537 10541 10544 10549 10552 10556 10560 10563 10566 10569 10572 10575 10577 10581 10584 10588 10591 10594 10598 10601 10602 10605 10607 10609 10612 10614 10616 10617 10619 10621 10623 10625 10627 10628 10630 10632 10634 10636 10637 10639 10640 10642 10643 10645 10647 10648 10648 10649 10650 10653 10654 10654 10654 10654 10654 10655 10656 10655 10653 10653 10654 10654 10654 10653 10652 10650 10649 10647 10645 10644 10642 10641 10640 10639 10637 10636 10634 10632 10629 10627 10625 10623 10621 10617 10612 10607
10528 10532 10536 10540 10544 10548 10551 10555 10558 10561 10564 10566 10569 10572 10575 10579 10582 10584 10586 10590 10593 10595 10598 10601 10603 10606 10608 10610 10612 10614 10616 10617 10620 10622 10623 10625 10627 10628 10630 10631 10633 10634 10635 10637 10638 10640 10641 10642 10643 10645 10646 10646 10646 10646 10646 10646 10647 10647 10646 10645 10645 10646 10646 10645 10644 10643 10642 10640 10639 10638 10636 10634 10633 10632 10630 10629 10627 10626 10623 10620 10617 10615 10613 10611 10608 10603 10598
10524 10528 10532 10536 10540 10543 10547 10550 10552 10555 10558 10560 10563 10566 10569 10572 10575 10576 10578 10582 10585 10587 10590 10593 10597 10599 10601 10603 10606 10608 10609 10611 10613 10615 10617 10619 10621 10622 10624 10625 10626 10628 10629 10630 10631 10632 10633 10634 10636 10637 10638 10638 10637 10637 10637 10638 10638 10637 10637 10637 10637 10637 10636 10635 10634 10633 10633 10632 10630 10628 10627 10626 10624 10623 10621 10620 10618 10616 10613 10610 10607 10604 10601 10599 10596 10594 10589
10522 10526 10529 10533 10536 10539 10542 10544 10547 10549 10552 10554 10557 10559 10563 10566 10567 10569 10571 10574 10577 10579 10582 10585 10588 10591 10594 10596 10598 10600 10602 10604 10606 10607 10609 10611 10613 10615 10616 10617 10619 10620 10621 10622 10623 10624 10624 10625 10627 10628 10628 10628 10628 10628 10628 10628 10628 10627 10627 10628 10628 10627 10626 10625 10624 10623 10623 10622 10620 10619 10618 10616 10614 10613 10612 10610 10608 10606 10603 10600 10597 10594 10591 10587 10584 10582 10578
10519 10522 10525 10529 10532 10534 10536 10539 10541 10544 10546 10548 10551 10553 10556 10558 10560 10562 10564 10567 10570 10572 10574 10577 10579 10582 10585 10588 10590 10593 10595 10596 10598 10599 10602 10604 10605 10606 10608 10609 10610 10611 10612 10613 10614 10615 10616 10616 10617 10618 10618 10618 10618 10618 10618 10618 10618 10618 10619 10619 10618 10616 10615 10614 10614 10614 10613 10611 10610 10609 10608 10606 10604 10603 10602 10600 10597 10595 10593 10590 10586 10583 10580 10577 10575 10571 10567
10515 10518 10521 10524 10527 10529 10531 10533 10536 10538 10540 10542 10545 10547 10549 10551 10552 10554 10556 10559 10562 10565 10567 10569 10571 10574 10577 10580 10582 10585 10587 10589 10590 10591 10593 10595 10596 10597 10598 10599 10601 10602 10603 10603 10604 10605 10607 10607 10607 10607 10607 10608 10608 10608 10608 10607 10608 10609 10610 10608 10607 10605 10605 10604 10604 10603 10601 10601 10601 10600 10598 10595 10594 10594 10592 10589 10587 10585 10582 10579 10576 10572 10569 10566 10564 10560 10557
10511 10514 10517 10520 10522 10523 10525 10528 10530 10532 10534 10536 10538 10540 10542 10543 10545 10547 10549 10551 10554 10557 10559 10562 10564 10566 10569 10571 10574 10576 10579 10580 10581 10581 10583 10585 10587 10588 10589 10591 10593 10594 10594 10595 10595 10596 10597 10597 10597 10597 10597 10597 10598 10597 10597 10597 10599 10600 10599 10597 10596 10596 10595 10595 10594 10592 10591 10590 10591 10590 10588 10584 10584 10584 10582 10579 10576 10574 10572 10569 10566 10562 10559 10556 10553 10549 10545
10505 10508 10511 10513 10515 10517 10519 10521 10523 10526 10528 10530 10532 10533 10534 10536 10537 10540 10542 10544 10547 10549 10552 10554 10557 10559 10561 10564 10566 10568 10570 10571 10572 10572 10574 10577 10579 10579 10580 10582 10584 10585 10585 10586 10587 10588 10588 10588 10588 10587 10587 10587 10587 10588 10587 10587 10589 10589 10588 10587 10587 10586 10586 10585 10583 10582 10581 10580 10580 10580 10577 10574 10574 10574 10572 10568 10565 10563 10561 10558 10556 10553 10549 10546 10543 10539 10535
10499 10501 10504 10506 10508 10510 10512 10514 10516 10519 10521 10523 10525 10526 10527 10529 10530 10533 10535 10538 10540 10542 10545 10547 10550 10552 10555 10557 10559 10560 10561 10562 10563 10564 10566 10569 10570 10571 10572 10574 10575 10575 10576 10576 10577 10578 10579 10579 10578 10578 10578 10578 10579 10578 10578 10578 10579 10579 10578 10578 10578 10577 10576 10575 10574 10572 10572 10571 10571 10569 10567 10564 10563 10563 10562 10558 10555 10553 10551 10547 10545 10542 10540 10537 10533 10529 10525
10493 10495 10496 10499 10501 10503 10505 10507 10510 10512 10514 10516 10518 10519 10521 10522 10523 10525 10528 10531 10533 10535 10537 10540 10542 10545 10547 10549 10550 10552 10553 10554 10554 10556 10558 10560 10561 10563 10564 10566 10566 10565 10565 10566 10567 10568 10568 10569 10569 10569 10569 10569 10569 10568 10568 10570 10571 10570 10569 10569 10568 10567 10566 10566 10565 10563 10562 10561 10560 10558 10555 10553 10551 10551 10550 10547 10545 10543 10540 10537 10534 10531 10529 10527 10523 10519 10515
10486 10487 10489 10491 10494 10496 10498 10501 10503 10504 10506 10508 10510 10512 10514 10515 10517 10519 10521 10523 10525 10527 10530 10532 10535 10537 10539 10540 10542 10543 10544 10545 10547 10548 10549 10551 10553 10555 10556 10556 10555 10555 10555 10556 10557 10557 10558 10559 10559 10559 10559 10559 10559 10559 10559 10561 10561 10560 10558 10558 10557 10556 10555 10555 10554 10552 10550 10549 10548 10546 10544 10542 10541 10540 10539 10536 10534 10531 10528 10526 10524 10521 10519 10516 10513 10508 10504
10479 10481 10482 10484 10487 10490 10492 10493 10495 10496 10499 10501 10503 10505 10507 10508 10510 10512 10514 10516 10518 10521 10523 10525 10527 10529 10531 10532 10532 10534 10536 10537 10539 10541 10542 10543 10545 10545 10545 10545 10545 10545 10546 10546 10547 10548 10548 10549 10549 10549 10549 10549 10549 10549 10549 10550 10550 10549 10548 10547 10546 10544 10543 10543 10542 10541 10539 10538 10536 10534 10532 10530 10529 10528 10527 10525 10523 10520 10517 10515 10513 10511 10508 10505 10501 10498 10494
10472 10474 10476 10478 10480 10482 10484 10486 10487 10489 10491 10493 10495 10497 10499 10501 10502 10504 10507 10509 10512 10514 10515 10517 10518 10521 10523 10523 10523 10524 10527 10529 10530 10532 10533 10534 10534 10534 10535 10535 10536 10536 10536 10537 10538 10538 10539 10539 10539 10539 10539 10538 10538 10538 10538 10538 10540 10539 10537 10535 10533 10532 10531 10531 10530 10528 10526 10525 10525 10523 10520 10518 10516 10516 10515 10513 10511 10509 10506 10504 10502 10499 10496 10493 10490 10487 10484
10466 10468 10469 10470 10472 10474 10476 10478 10480 10482 10484 10485 10487 10489 10492 10493 10495 10497 10500 10502 10504 10506 10508 10509 10510 10512 10514 10514 10514 10516 10519 10521 10521 10522 10524 10524 10524 10524 10525 10526 10526 10526 10527 10527 10528 10528 10529 10529 10529 10529 10528 10528 10527 10527 10526 10527 10528 10528 10526 10523 10521 10519 10518 10518 10518 10516 10514 10513 10512 10511 10509 10507 10505 10504 10502 10500 10499 10497 10495 10493 10491 10488 10485 10482 10479 10476 10473
10460 10462 10463 10463 10464 10466 10469 10470 10472 10474 10476 10477 10479 10481 10483 10485 10487 10489 10492 10494 10495 10497 10499 10500 10501 10502 10504 10505 10507 10508 10509 10511 10512 10513 10513 10513 10513 10514 10515 10515 10515 10516 10516 10516 10516 10517 10519 10519 10519 10518 10517 10516 10516 10516 10515 10514 10514 10514 10513 10511 10509 10508 10506 10506 10505 10504 10502 10500 10499 10498 10498 10496 10494 10491 10489 10488 10487 10485 10483 10481 10479 10477 10473 10470 10467 10464 10462
10453 10454 10455 10456 10457 10459 10461 10463 10465 10467 10468 10469 10471 10473 10475 10476 10478 10479 10482 10484 10486 10488 10489 10491 10491 10491 10493 10496 10498 10499 10500 10501 10502 10502 10503 10503 10503 10504 10505 10505 10505 10505 10505 10505 10505 10506 10507 10507 10508 10507 10506 10505 10504 10504 10503 10502 10501 10500 10499 10498 10497 10496 10495 10494 10493 10491 10489 10488 10486 10486 10485 10484 10482 10479 10477 10476 10474 10472 10470 10469 10467 10465 10462 10459 10456 10453 10450